| time (UTC) | temp C | wind direction | speed KPH | gust KPH | rain 1hr cm | rain 24hr cm | rain mn cm | humidity % | barometer mb |
| 20260506094823 | 8 | 84 | 12.9 | 25.7 | 0.00 | 0.00 | 0.00 | 70 | 1016.8 |
| 20260506094322 | 8 | 41 | 11.3 | 25.7 | 0.00 | 0.00 | 0.00 | 70 | 1016.8 |
| 20260506093823 | 8 | 118 | 9.7 | 22.5 | 0.00 | 0.00 | 0.00 | 72 | 1016.9 |
| 20260506093324 | 7 | 78 | 9.7 | 25.7 | 0.00 | 0.00 | 0.00 | 73 | 1016.7 |
| 20260506092823 | 7 | 71 | 8.0 | 25.7 | 0.00 | 0.00 | 0.00 | 73 | 1016.7 |
| 20260506092323 | 8 | 68 | 8.0 | 19.3 | 0.00 | 0.00 | 0.00 | 76 | 1016.8 |
| 20260506091817 | 7 | 346 | 9.7 | 22.5 | 0.00 | 0.00 | 0.00 | 74 | 1016.8 |
| 20260506091313 | 7 | 130 | 9.7 | 22.5 | 0.00 | 0.00 | 0.00 | 75 | 1016.8 |
| 20260506090813 | 7 | 243 | 8.0 | 19.3 | 0.00 | 0.00 | 0.00 | 76 | 1016.7 |
| 20260506090313 | 7 | 110 | 6.4 | 17.7 | 0.00 | 0.00 | 0.00 | 77 | 1016.9 |
| 20260506085813 | 7 | 93 | 6.4 | 16.1 | 0.00 | 0.00 | 0.00 | 78 | 1016.8 |
| 20260506085313 | 7 | 39 | 6.4 | 19.3 | 0.00 | 0.00 | 0.00 | 78 | 1016.8 |
| 20260506084812 | 7 | 322 | 8.0 | 19.3 | 0.00 | 0.00 | 0.00 | 77 | 1016.7 |
| 20260506084313 | 7 | 119 | 8.0 | 22.5 | 0.00 | 0.00 | 0.00 | 77 | 1016.7 |
| 20260506083812 | 7 | 31 | 9.7 | 22.5 | 0.00 | 0.00 | 0.00 | 77 | 1016.7 |
| 20260506083313 | 7 | 165 | 9.7 | 20.9 | 0.00 | 0.00 | 0.00 | 75 | 1016.7 |
| 20260506082813 | 7 | 58 | 8.0 | 19.3 | 0.00 | 0.00 | 0.00 | 75 | 1016.6 |
| 20260506082313 | 7 | 293 | 9.7 | 22.5 | 0.00 | 0.00 | 0.00 | 73 | 1016.6 |
| 20260506081812 | 7 | 0 | 9.7 | 22.5 | 0.00 | 0.00 | 0.00 | 73 | 1016.5 |
| 20260506081313 | 8 | 304 | 8.0 | 20.9 | 0.00 | 0.00 | 0.00 | 74 | 1016.5 |
| 20260506080813 | 8 | 27 | 11.3 | 24.1 | 0.00 | 0.00 | 0.00 | 74 | 1016.5 |
| 20260506080313 | 8 | 359 | 12.9 | 24.1 | 0.00 | 0.00 | 0.00 | 74 | 1016.4 |
| 20260506073313 | 8 | 95 | 12.9 | 25.7 | 0.00 | 0.00 | 0.00 | 74 | 1016.1 |
| 20260506072813 | 8 | 35 | 11.3 | 25.7 | 0.00 | 0.00 | 0.00 | 75 | 1016.3 |
| 20260506072313 | 8 | 11 | 9.7 | 20.9 | 0.00 | 0.00 | 0.00 | 76 | 1016.2 |
| 20260506071813 | 7 | 212 | 11.3 | 24.1 | 0.00 | 0.00 | 0.00 | 76 | 1016.1 |
| 20260506071312 | 7 | 53 | 11.3 | 27.4 | 0.00 | 0.00 | 0.00 | 75 | 1016.2 |
| 20260506070812 | 7 | 28 | 12.9 | 27.4 | 0.00 | 0.00 | 0.00 | 77 | 1016.1 |
| 20260506070312 | 7 | 28 | 12.9 | 24.1 | 0.00 | 0.00 | 0.00 | 77 | 1016.0 |
| 20260506062311 | 7 | 62 | 12.9 | 25.7 | 0.00 | 0.00 | 0.00 | 75 | 1015.7 |
| 20260506061811 | 7 | 52 | 11.3 | 22.5 | 0.00 | 0.00 | 0.00 | 76 | 1015.7 |
| 20260506061310 | 7 | 18 | 11.3 | 20.9 | 0.00 | 0.00 | 0.00 | 76 | 1015.7 |
| 20260506060810 | 7 | 347 | 11.3 | 20.9 | 0.00 | 0.00 | 0.00 | 76 | 1015.7 |
| 20260506060311 | 7 | 34 | 9.7 | 20.9 | 0.00 | 0.00 | 0.00 | 77 | 1015.7 |
| 20260506051302 | 7 | 18 | 9.7 | 22.5 | 0.00 | 0.00 | 0.00 | 78 | 1015.6 |
| 20260506050803 | 7 | 13 | 9.7 | 22.5 | 0.00 | 0.00 | 0.00 | 77 | 1015.5 |
| 20260506050303 | 7 | 14 | 9.7 | 24.1 | 0.00 | 0.00 | 0.00 | 77 | 1015.6 |
| 20260506044749 | 7 | 238 | 8.0 | 20.9 | 0.00 | 0.00 | 0.00 | 77 | 1015.6 |
| 20260506044247 | 7 | 97 | 9.7 | 19.3 | 0.00 | 0.00 | 0.00 | 76 | 1015.6 |
| 20260506043744 | 7 | 27 | 9.7 | 19.3 | 0.00 | 0.00 | 0.00 | 76 | 1015.5 |
| 20260506043245 | 7 | 30 | 6.4 | 16.1 | 0.00 | 0.00 | 0.00 | 76 | 1015.5 |
| 20260506042744 | 7 | 34 | 4.8 | 16.1 | 0.00 | 0.00 | 0.00 | 77 | 1015.5 |
| 20260506042242 | 7 | 32 | 6.4 | 16.1 | 0.00 | 0.00 | 0.00 | 77 | 1015.5 |
| 20260506041742 | 7 | 84 | 6.4 | 14.5 | 0.00 | 0.00 | 0.00 | 77 | 1015.5 |
| 20260506041243 | 7 | 34 | 6.4 | 17.7 | 0.00 | 0.00 | 0.00 | 77 | 1015.5 |
| 20260506040742 | 7 | 53 | 8.0 | 19.3 | 0.00 | 0.00 | 0.00 | 77 | 1015.5 |
| 20260506040242 | 7 | 37 | 8.0 | 19.3 | 0.00 | 0.00 | 0.00 | 77 | 1015.5 |
| 20260506035743 | 7 | 12 | 6.4 | 17.7 | 0.00 | 0.00 | 0.00 | 78 | 1015.4 |
| 20260506035242 | 7 | 7 | 6.4 | 16.1 | 0.00 | 0.00 | 0.00 | 79 | 1015.5 |
| 20260506034742 | 7 | 296 | 6.4 | 16.1 | 0.00 | 0.00 | 0.00 | 78 | 1015.5 |
| 20260506034242 | 7 | 13 | 6.4 | 16.1 | 0.00 | 0.00 | 0.00 | 78 | 1015.5 |
| 20260506033742 | 7 | 81 | 8.0 | 17.7 | 0.00 | 0.00 | 0.00 | 78 | 1015.5 |
| 20260506033241 | 7 | 347 | 6.4 | 17.7 | 0.00 | 0.00 | 0.00 | 78 | 1015.5 |
| 20260506032736 | 7 | 29 | 6.4 | 19.3 | 0.00 | 0.00 | 0.00 | 78 | 1015.5 |
| 20260506032235 | 7 | 27 | 6.4 | 19.3 | 0.00 | 0.00 | 0.00 | 78 | 1015.4 |
| 20260506031735 | 7 | 5 | 6.4 | 17.7 | 0.00 | 0.00 | 0.00 | 77 | 1015.5 |
| 20260506031236 | 7 | 46 | 8.0 | 19.3 | 0.00 | 0.00 | 0.00 | 76 | 1015.4 |
| 20260506030736 | 7 | 329 | 9.7 | 19.3 | 0.00 | 0.00 | 0.00 | 76 | 1015.5 |
| 20260506030236 | 7 | 323 | 8.0 | 17.7 | 0.00 | 0.00 | 0.00 | 76 | 1015.4 |
| 20260506025736 | 7 | 19 | 8.0 | 17.7 | 0.00 | 0.00 | 0.00 | 77 | 1015.5 |
| 20260506025237 | 7 | 118 | 9.7 | 17.7 | 0.00 | 0.00 | 0.00 | 77 | 1015.6 |
| 20260506024736 | 7 | 25 | 9.7 | 17.7 | 0.00 | 0.00 | 0.00 | 77 | 1015.6 |
| 20260506024236 | 7 | 34 | 8.0 | 16.1 | 0.00 | 0.00 | 0.00 | 77 | 1015.6 |
| 20260506023736 | 7 | 354 | 6.4 | 16.1 | 0.00 | 0.00 | 0.00 | 78 | 1015.6 |
| 20260506023236 | 7 | 337 | 6.4 | 16.1 | 0.00 | 0.00 | 0.00 | 78 | 1015.6 |
| 20260506022736 | 7 | 34 | 8.0 | 19.3 | 0.00 | 0.00 | 0.00 | 78 | 1015.6 |
| 20260506022236 | 7 | 20 | 8.0 | 20.9 | 0.00 | 0.00 | 0.00 | 78 | 1015.7 |
| 20260506021736 | 7 | 76 | 8.0 | 22.5 | 0.00 | 0.00 | 0.00 | 78 | 1015.7 |
| 20260506021229 | 7 | 347 | 8.0 | 22.5 | 0.00 | 0.00 | 0.00 | 78 | 1015.7 |
| 20260506020730 | 7 | 58 | 8.0 | 17.7 | 0.00 | 0.00 | 0.00 | 79 | 1015.8 |
| 20260506020229 | 7 | 42 | 6.4 | 14.5 | 0.00 | 0.00 | 0.00 | 79 | 1015.8 |
| 20260506015733 | 7 | 170 | 6.4 | 17.7 | 0.00 | 0.00 | 0.00 | 78 | 1015.8 |
| 20260506015230 | 7 | 129 | 6.4 | 17.7 | 0.00 | 0.00 | 0.00 | 77 | 1015.7 |
| 20260506014729 | 7 | 358 | 8.0 | 16.1 | 0.00 | 0.00 | 0.00 | 77 | 1015.9 |
| 20260506014230 | 7 | 340 | 6.4 | 14.5 | 0.00 | 0.00 | 0.00 | 77 | 1015.8 |
| 20260506013730 | 7 | 15 | 6.4 | 17.7 | 0.00 | 0.00 | 0.00 | 77 | 1015.7 |
| 20260506013230 | 7 | 60 | 8.0 | 19.3 | 0.00 | 0.00 | 0.00 | 77 | 1015.8 |
| 20260506012730 | 7 | 5 | 6.4 | 19.3 | 0.00 | 0.00 | 0.00 | 77 | 1015.7 |
| 20260506012230 | 7 | 30 | 4.8 | 14.5 | 0.00 | 0.00 | 0.00 | 78 | 1015.7 |
| 20260506011729 | 7 | 319 | 4.8 | 11.3 | 0.00 | 0.00 | 0.00 | 78 | 1015.8 |
| 20260506011229 | 7 | 346 | 6.4 | 14.5 | 0.00 | 0.00 | 0.00 | 78 | 1015.7 |
| 20260506010730 | 7 | 347 | 6.4 | 16.1 | 0.00 | 0.00 | 0.00 | 78 | 1015.7 |
| 20260506010230 | 7 | 30 | 6.4 | 17.7 | 0.00 | 0.00 | 0.00 | 78 | 1015.8 |
| 20260506005725 | 7 | 321 | 6.4 | 17.7 | 0.00 | 0.00 | 0.00 | 78 | 1015.9 |
| 20260506005226 | 7 | 22 | 6.4 | 12.9 | 0.00 | 0.00 | 0.00 | 78 | 1015.9 |
| 20260506004726 | 7 | 336 | 6.4 | 12.9 | 0.00 | 0.00 | 0.00 | 78 | 1015.9 |
| 20260506004226 | 7 | 338 | 6.4 | 16.1 | 0.00 | 0.00 | 0.00 | 78 | 1015.9 |
| 20260506003726 | 7 | 317 | 6.4 | 17.7 | 0.00 | 0.00 | 0.00 | 78 | 1015.9 |
| 20260506003226 | 7 | 2 | 6.4 | 17.7 | 0.00 | 0.00 | 0.00 | 77 | 1015.9 |
| 20260506002726 | 7 | 30 | 8.0 | 16.1 | 0.00 | 0.00 | 0.00 | 77 | 1016.0 |
| 20260506002226 | 7 | 219 | 8.0 | 16.1 | 0.00 | 0.00 | 0.00 | 77 | 1016.0 |
| 20260506001726 | 7 | 333 | 8.0 | 16.1 | 0.00 | 0.00 | 0.00 | 77 | 1015.9 |
| 20260506001226 | 7 | 13 | 8.0 | 20.9 | 0.00 | 0.00 | 0.00 | 78 | 1016.1 |
| 20260506000725 | 7 | 1 | 8.0 | 20.9 | 0.00 | 0.00 | 0.00 | 78 | 1016.1 |
| 20260506000227 | 7 | 64 | 8.0 | 20.9 | 0.00 | 0.00 | 0.00 | 78 | 1016.1 |
| 20260505235725 | 7 | 28 | 6.4 | 17.7 | 0.00 | 0.00 | 0.00 | 78 | 1016.1 |
| 20260505235226 | 7 | 341 | 6.4 | 16.1 | 0.00 | 0.00 | 0.00 | 78 | 1016.1 |
| 20260505234726 | 7 | 335 | 4.8 | 16.1 | 0.00 | 0.00 | 0.00 | 79 | 1016.1 |
| 20260505234226 | 7 | 322 | 4.8 | 16.1 | 0.00 | 0.00 | 0.00 | 79 | 1016.2 |
| 20260505233725 | 7 | 330 | 6.4 | 16.1 | 0.00 | 0.00 | 0.00 | 78 | 1016.2 |
| 20260505233225 | 7 | 321 | 6.4 | 14.5 | 0.00 | 0.00 | 0.00 | 77 | 1016.2 |
| 20260505232725 | 7 | 113 | 6.4 | 17.7 | 0.00 | 0.00 | 0.00 | 77 | 1016.1 |
| 20260505232226 | 7 | 44 | 6.4 | 17.7 | 0.00 | 0.00 | 0.00 | 77 | 1016.2 |
| 20260505231726 | 7 | 349 | 8.0 | 22.5 | 0.00 | 0.00 | 0.00 | 77 | 1016.2 |
| 20260505231225 | 7 | 44 | 6.4 | 22.5 | 0.00 | 0.00 | 0.00 | 77 | 1016.2 |
| 20260505230726 | 7 | 61 | 6.4 | 16.1 | 0.00 | 0.00 | 0.00 | 78 | 1016.2 |
| 20260505230226 | 7 | 22 | 6.4 | 16.1 | 0.00 | 0.00 | 0.00 | 78 | 1016.3 |
| 20260505225725 | 7 | 49 | 6.4 | 17.7 | 0.00 | 0.00 | 0.00 | 78 | 1016.3 |
| 20260505225225 | 7 | 0 | 8.0 | 17.7 | 0.00 | 0.00 | 0.00 | 78 | 1016.3 |
| 20260505224725 | 7 | 84 | 8.0 | 20.9 | 0.00 | 0.00 | 0.00 | 78 | 1016.3 |
| 20260505224225 | 7 | 67 | 8.0 | 20.9 | 0.00 | 0.00 | 0.00 | 79 | 1016.3 |
| 20260505223724 | 7 | 345 | 8.0 | 17.7 | 0.00 | 0.00 | 0.00 | 79 | 1016.3 |
| 20260505223225 | 7 | 75 | 8.0 | 17.7 | 0.00 | 0.00 | 0.00 | 79 | 1016.4 |
| 20260505222725 | 7 | 30 | 6.4 | 14.5 | 0.00 | 0.00 | 0.00 | 79 | 1016.4 |
| 20260505222225 | 7 | 86 | 6.4 | 17.7 | 0.00 | 0.00 | 0.00 | 79 | 1016.4 |
| 20260505221724 | 7 | 308 | 6.4 | 17.7 | 0.00 | 0.00 | 0.00 | 79 | 1016.5 |
| 20260505221225 | 7 | 32 | 6.4 | 14.5 | 0.00 | 0.00 | 0.00 | 79 | 1016.5 |
| 20260505220725 | 7 | 326 | 6.4 | 14.5 | 0.00 | 0.00 | 0.00 | 79 | 1016.6 |
| 20260505220218 | 7 | 338 | 6.4 | 14.5 | 0.00 | 0.00 | 0.00 | 79 | 1016.5 |
| 20260505215712 | 7 | 120 | 6.4 | 14.5 | 0.00 | 0.00 | 0.00 | 79 | 1016.5 |
| 20260505215207 | 7 | 340 | 6.4 | 16.1 | 0.00 | 0.00 | 0.00 | 80 | 1016.4 |
| 20260505214706 | 7 | 237 | 8.0 | 17.7 | 0.00 | 0.00 | 0.00 | 80 | 1016.4 |
| 20260505214206 | 7 | 74 | 8.0 | 17.7 | 0.00 | 0.00 | 0.00 | 80 | 1016.4 |
| 20260505213706 | 7 | 297 | 8.0 | 17.7 | 0.00 | 0.00 | 0.00 | 80 | 1016.5 |
| 20260505213207 | 7 | 4 | 9.7 | 20.9 | 0.00 | 0.00 | 0.00 | 79 | 1016.3 |
| 20260505212706 | 7 | 354 | 9.7 | 20.9 | 0.00 | 0.00 | 0.00 | 79 | 1016.5 |
| 20260505212206 | 7 | 28 | 9.7 | 19.3 | 0.00 | 0.00 | 0.00 | 79 | 1016.5 |
| 20260505211707 | 7 | 356 | 8.0 | 19.3 | 0.00 | 0.00 | 0.00 | 80 | 1016.5 |
| 20260505211207 | 7 | 342 | 8.0 | 20.9 | 0.00 | 0.00 | 0.00 | 80 | 1016.6 |
| 20260505210707 | 7 | 275 | 8.0 | 22.5 | 0.00 | 0.00 | 0.00 | 80 | 1016.5 |
| 20260505210207 | 7 | 308 | 9.7 | 24.1 | 0.00 | 0.00 | 0.00 | 80 | 1016.5 |
| 20260505205707 | 7 | 351 | 9.7 | 24.1 | 0.00 | 0.00 | 0.00 | 80 | 1016.4 |
| 20260505205210 | 7 | 97 | 9.7 | 24.1 | 0.00 | 0.00 | 0.00 | 80 | 1016.5 |
| 20260505204707 | 7 | 88 | 8.0 | 24.1 | 0.00 | 0.00 | 0.00 | 80 | 1016.5 |
| 20260505204207 | 7 | 9 | 6.4 | 17.7 | 0.00 | 0.00 | 0.00 | 81 | 1016.6 |
| 20260505203707 | 7 | 261 | 8.0 | 22.5 | 0.00 | 0.00 | 0.00 | 81 | 1016.5 |
| 20260505203207 | 7 | 352 | 8.0 | 22.5 | 0.00 | 0.00 | 0.00 | 81 | 1016.4 |
| 20260505202707 | 7 | 20 | 8.0 | 19.3 | 0.00 | 0.00 | 0.00 | 81 | 1016.4 |
| 20260505202207 | 7 | 351 | 9.7 | 19.3 | 0.00 | 0.00 | 0.00 | 81 | 1016.4 |
| 20260505201707 | 7 | 97 | 9.7 | 19.3 | 0.00 | 0.00 | 0.00 | 81 | 1016.4 |
| 20260505201207 | 7 | 354 | 8.0 | 19.3 | 0.00 | 0.00 | 0.00 | 81 | 1016.3 |
| 20260505200706 | 7 | 300 | 8.0 | 17.7 | 0.00 | 0.00 | 0.00 | 81 | 1016.4 |
| 20260505200206 | 7 | 65 | 8.0 | 17.7 | 0.00 | 0.00 | 0.00 | 80 | 1016.4 |
| 20260505195706 | 7 | 6 | 9.7 | 24.1 | 0.00 | 0.00 | 0.00 | 80 | 1016.5 |
| 20260505195207 | 7 | 108 | 11.3 | 24.1 | 0.00 | 0.00 | 0.00 | 79 | 1016.5 |
| 20260505194707 | 7 | 332 | 12.9 | 22.5 | 0.00 | 0.00 | 0.00 | 79 | 1016.4 |
| 20260505194206 | 7 | 236 | 12.9 | 24.1 | 0.00 | 0.00 | 0.00 | 79 | 1016.3 |
| 20260505193703 | 7 | 344 | 11.3 | 24.1 | 0.00 | 0.00 | 0.00 | 80 | 1016.4 |
| 20260505193203 | 7 | 342 | 12.9 | 33.8 | 0.00 | 0.00 | 0.00 | 80 | 1016.3 |
| 20260505192703 | 7 | 127 | 12.9 | 33.8 | 0.00 | 0.00 | 0.00 | 79 | 1016.3 |
| 20260505192202 | 7 | 356 | 12.9 | 27.4 | 0.00 | 0.00 | 0.00 | 79 | 1016.0 |
| 20260505191702 | 8 | 56 | 12.9 | 29.0 | 0.00 | 0.00 | 0.00 | 79 | 1016.0 |
| 20260505191202 | 8 | 75 | 12.9 | 33.8 | 0.00 | 0.00 | 0.00 | 78 | 1015.9 |
| 20260505190703 | 8 | 94 | 14.5 | 33.8 | 0.00 | 0.00 | 0.00 | 78 | 1015.9 |
| 20260505190201 | 8 | 316 | 16.1 | 35.4 | 0.00 | 0.00 | 0.00 | 79 | 1015.9 |
| 20260505185703 | 8 | 63 | 14.5 | 35.4 | 0.00 | 0.00 | 0.00 | 79 | 1015.9 |
| 20260505185202 | 8 | 328 | 12.9 | 25.7 | 0.00 | 0.00 | 0.00 | 80 | 1015.8 |
| 20260505184702 | 8 | 169 | 14.5 | 32.2 | 0.00 | 0.00 | 0.00 | 80 | 1015.7 |
| 20260505184201 | 8 | 335 | 14.5 | 32.2 | 0.00 | 0.00 | 0.00 | 79 | 1015.7 |
| 20260505183653 | 8 | 333 | 16.1 | 33.8 | 0.00 | 0.00 | 0.00 | 78 | 1015.6 |
| 20260505183148 | 8 | 317 | 14.5 | 33.8 | 0.00 | 0.00 | 0.00 | 77 | 1015.6 |
| 20260505182648 | 8 | 352 | 12.9 | 25.7 | 0.00 | 0.00 | 0.00 | 77 | 1015.6 |
| 20260505182148 | 8 | 233 | 11.3 | 25.7 | 0.00 | 0.00 | 0.00 | 77 | 1015.7 |
| 20260505181648 | 8 | 140 | 11.3 | 24.1 | 0.00 | 0.00 | 0.00 | 77 | 1015.7 |
| 20260505181148 | 8 | 344 | 12.9 | 29.0 | 0.00 | 0.00 | 0.00 | 77 | 1015.7 |
| 20260505180650 | 8 | 59 | 12.9 | 30.6 | 0.00 | 0.00 | 0.00 | 76 | 1015.6 |
| 20260505180148 | 8 | 350 | 12.9 | 30.6 | 0.00 | 0.00 | 0.00 | 76 | 1015.7 |
| 20260505175648 | 8 | 330 | 14.5 | 30.6 | 0.00 | 0.00 | 0.00 | 77 | 1015.7 |
| 20260505175148 | 8 | 274 | 14.5 | 30.6 | 0.00 | 0.00 | 0.00 | 78 | 1015.7 |
| 20260505174648 | 8 | 347 | 12.9 | 30.6 | 0.00 | 0.00 | 0.00 | 79 | 1015.7 |
| 20260505174148 | 8 | 11 | 12.9 | 27.4 | 0.00 | 0.00 | 0.00 | 79 | 1015.8 |
| 20260505173648 | 9 | 14 | 12.9 | 25.7 | 0.00 | 0.00 | 0.00 | 79 | 1015.8 |
| 20260505173148 | 9 | 120 | 12.9 | 32.2 | 0.00 | 0.00 | 0.00 | 79 | 1015.8 |
| 20260505172647 | 9 | 352 | 14.5 | 32.2 | 0.00 | 0.00 | 0.00 | 79 | 1015.8 |
| 20260505172141 | 9 | 36 | 12.9 | 29.0 | 0.00 | 0.00 | 0.00 | 79 | 1015.8 |
| 20260505171642 | 9 | 330 | 11.3 | 30.6 | 0.00 | 0.00 | 0.00 | 80 | 1015.9 |
| 20260505171142 | 9 | 315 | 12.9 | 30.6 | 0.00 | 0.00 | 0.00 | 79 | 1015.9 |
| 20260505170641 | 9 | 100 | 14.5 | 30.6 | 0.00 | 0.00 | 0.00 | 79 | 1015.8 |
| 20260505170142 | 9 | 353 | 12.9 | 30.6 | 0.00 | 0.00 | 0.00 | 79 | 1015.9 |
| 20260505165642 | 10 | 55 | 12.9 | 25.7 | 0.00 | 0.00 | 0.00 | 79 | 1015.9 |
| 20260505165142 | 10 | 9 | 12.9 | 25.7 | 0.00 | 0.00 | 0.00 | 79 | 1015.9 |
| 20260505164642 | 10 | 59 | 12.9 | 30.6 | 0.00 | 0.00 | 0.00 | 78 | 1015.8 |
| 20260505164142 | 10 | 359 | 14.5 | 30.6 | 0.00 | 0.00 | 0.00 | 77 | 1015.7 |
| 20260505163642 | 10 | 84 | 11.3 | 24.1 | 0.00 | 0.00 | 0.00 | 77 | 1015.6 |
| 20260505163142 | 10 | 72 | 11.3 | 25.7 | 0.00 | 0.00 | 0.00 | 76 | 1015.6 |
| 20260505162642 | 10 | 55 | 11.3 | 25.7 | 0.00 | 0.00 | 0.00 | 76 | 1015.7 |
| 20260505162142 | 10 | 6 | 11.3 | 29.0 | 0.00 | 0.00 | 0.00 | 76 | 1015.6 |
| 20260505161642 | 10 | 34 | 11.3 | 29.0 | 0.00 | 0.00 | 0.00 | 76 | 1015.6 |
| 20260505161142 | 10 | 15 | 11.3 | 24.1 | 0.00 | 0.00 | 0.00 | 76 | 1015.5 |
| 20260505160638 | 10 | 282 | 11.3 | 27.4 | 0.00 | 0.00 | 0.00 | 76 | 1015.5 |
| 20260505160137 | 10 | 122 | 12.9 | 32.2 | 0.00 | 0.00 | 0.00 | 76 | 1015.6 |
| 20260505153138 | 10 | 3 | 12.9 | 30.6 | 0.00 | 0.00 | 0.00 | 76 | 1015.6 |
| 20260505152638 | 10 | 22 | 11.3 | 25.7 | 0.00 | 0.00 | 0.00 | 76 | 1015.7 |
| 20260505152138 | 10 | 319 | 9.7 | 25.7 | 0.00 | 0.00 | 0.00 | 76 | 1015.8 |
| 20260505151638 | 10 | 69 | 9.7 | 25.7 | 0.00 | 0.00 | 0.00 | 77 | 1015.6 |
| 20260505151137 | 10 | 345 | 11.3 | 25.7 | 0.00 | 0.00 | 0.00 | 77 | 1015.6 |
| 20260505150638 | 10 | 48 | 11.3 | 25.7 | 0.00 | 0.00 | 0.00 | 77 | 1015.7 |
| 20260505150137 | 10 | 325 | 12.9 | 29.0 | 0.00 | 0.00 | 0.00 | 78 | 1015.6 |
| 20260505140633 | 10 | 344 | 11.3 | 22.5 | 0.00 | 0.00 | 0.00 | 80 | 1015.4 |
| 20260505140134 | 10 | 121 | 12.9 | 24.1 | 0.00 | 0.00 | 0.00 | 80 | 1015.3 |
| 20260505130131 | 10 | 328 | 14.5 | 30.6 | 0.00 | 0.00 | 0.00 | 82 | 1015.1 |
| 20260505124632 | 10 | 85 | 11.3 | 22.5 | 0.00 | 0.00 | 0.00 | 81 | 1014.9 |
| 20260505124131 | 10 | 79 | 12.9 | 27.4 | 0.00 | 0.00 | 0.00 | 81 | 1015.0 |
| 20260505123632 | 10 | 348 | 12.9 | 27.4 | 0.00 | 0.00 | 0.00 | 81 | 1014.9 |
| 20260505123131 | 10 | 141 | 9.7 | 22.5 | 0.00 | 0.00 | 0.00 | 81 | 1014.9 |
| 20260505122631 | 10 | 45 | 11.3 | 25.7 | 0.00 | 0.00 | 0.00 | 81 | 1015.0 |
| 20260505122131 | 10 | 1 | 11.3 | 25.7 | 0.00 | 0.00 | 0.00 | 81 | 1014.8 |
| 20260505121626 | 10 | 356 | 11.3 | 22.5 | 0.00 | 0.00 | 0.00 | 80 | 1014.8 |
| 20260505121126 | 10 | 37 | 11.3 | 22.5 | 0.00 | 0.00 | 0.00 | 79 | 1014.9 |
| 20260505120626 | 11 | 336 | 9.7 | 20.9 | 0.00 | 0.00 | 0.00 | 78 | 1014.9 |
| 20260505120130 | 11 | 104 | 8.0 | 27.4 | 0.00 | 0.00 | 0.00 | 78 | 1014.9 |
| 20260505115126 | 11 | 90 | 9.7 | 22.5 | 0.00 | 0.00 | 0.00 | 78 | 1014.8 |
| 20260505114624 | 11 | 330 | 8.0 | 22.5 | 0.00 | 0.00 | 0.00 | 78 | 1015.0 |
| 20260505114123 | 11 | 350 | 6.4 | 16.1 | 0.00 | 0.00 | 0.00 | 77 | 1014.8 |
| 20260505113623 | 11 | 60 | 8.0 | 24.1 | 0.00 | 0.00 | 0.00 | 76 | 1014.9 |
| 20260505113123 | 11 | 336 | 11.3 | 24.1 | 0.00 | 0.00 | 0.00 | 77 | 1015.0 |
| 20260505112624 | 11 | 13 | 11.3 | 29.0 | 0.00 | 0.00 | 0.00 | 76 | 1014.9 |
| 20260505112123 | 11 | 4 | 11.3 | 29.0 | 0.00 | 0.00 | 0.00 | 76 | 1014.9 |
| 20260505111623 | 11 | 109 | 11.3 | 22.5 | 0.00 | 0.00 | 0.00 | 75 | 1014.9 |
| 20260505111123 | 11 | 15 | 9.7 | 24.1 | 0.00 | 0.00 | 0.00 | 76 | 1014.9 |
| 20260505110633 | 11 | 307 | 11.3 | 25.7 | 0.00 | 0.00 | 0.00 | 77 | 1014.9 |
| 20260505110124 | 11 | 336 | 9.7 | 25.7 | 0.00 | 0.00 | 0.00 | 77 | 1014.8 |
| 20260505102122 | 11 | 351 | 8.0 | 20.9 | 0.00 | 0.00 | 0.00 | 75 | 1014.8 |
| 20260505101620 | 11 | 61 | 9.7 | 22.5 | 0.00 | 0.00 | 0.00 | 74 | 1014.7 |
| 20260505101119 | 11 | 89 | 11.3 | 22.5 | 0.00 | 0.00 | 0.00 | 74 | 1014.8 |
| 20260505100619 | 11 | 328 | 9.7 | 17.7 | 0.00 | 0.00 | 0.00 | 73 | 1014.7 |
| 20260505100119 | 11 | 337 | 8.0 | 16.1 | 0.00 | 0.00 | 0.00 | 74 | 1014.7 |
| 20260505095617 | 11 | 352 | 8.0 | 16.1 | 0.00 | 0.00 | 0.00 | 74 | 1014.7 |
| 20260505095118 | 11 | 352 | 8.0 | 16.1 | 0.00 | 0.00 | 0.00 | 74 | 1014.8 |